Weather History for Guadalupe Pass, TX

Change the Weather History Date:

Tuesday, February 12, 2013

  Actual Average Record
Temperature  
Mean Temperature 38 °F -  
Max Temperature 48 °F 53 °F 66 °F (2001)
Min Temperature 28 °F 34 °F 17 °F (2004)
Degree Days  
Heating Degree Days 27    
Moisture  
Dew Point 19 °F    
Average Humidity 58    
Maximum Humidity 92    
Minimum Humidity 18    
Precipitation  
Precipitation 0.00 in - - ()
Sea Level Pressure  
Sea Level Pressure 29.98 in    
Wind  
Wind Speed 24 mph (West)    
Max Wind Speed 38 mph    
Max Gust Speed 48 mph    
Visibility 8 miles    
Events Snow    
Averages and records for this station are not official NWS values.
T = Trace of Precipitation, MM = Missing Value Source: NWS Daily Summary

Daily Weather History Graph

Daily Weather History Graph

Search for Another Location

Airport:

Trip Planner

Search our weather history database for the weather conditions in past years. The results will help you decide how hot, cold, wet, or windy it might be!

Date:

Astronomy

Feb. 12, 2013 Rise Set
Actual Time 6:43 AM MST 5:43 PM MST
Civil Twilight 6:18 AM MST 6:08 PM MST
Nautical Twilight 5:49 AM MST 6:37 PM MST
Astronomical Twilight 5:21 AM MST 7:05 PM MST
Moon 7:55 AM MST (2/12) 8:31 PM MST (2/12)
Length of Visible Light 11h 49m
Length of Day
10h 59m
Waxing Crescent, 8% of the Moon is Illuminated
Feb 12
Waxing Crescent
Feb 17
First Quarter
Feb 25
Full
Mar 4
Last Quarter
Mar 11
New

Hourly Weather History & Observations

Time (MST) Temp. Windchill Dew Point Humidity Pressure Visibility Wind Dir Wind Speed Gust Speed Precip Events Conditions
12:51 AM 37.9 °F 32.1 °F 9.0 °F 30% 29.82 in 10.0 mi West 8.1 mph - N/A   Partly Cloudy
1:51 AM 37.0 °F 25.4 °F 19.0 °F 48% 29.83 in 10.0 mi West 25.3 mph 42.6 mph N/A   Overcast
2:26 AM 35.1 °F 21.0 °F 26.1 °F 70% 29.91 in 9.0 mi West 34.5 mph 48.3 mph N/A   Overcast
2:40 AM 33.1 °F 18.2 °F 28.0 °F 82% 29.91 in 3.0 mi West 34.5 mph 47.2 mph 0.00 in Snow Light Snow
2:44 AM 33.1 °F 18.4 °F 28.9 °F 85% 29.91 in 2.5 mi West 33.4 mph 47.2 mph 0.00 in Snow Light Snow
2:51 AM 32.0 °F 16.5 °F 30.0 °F 92% 29.83 in 4.0 mi West 35.7 mph 41.4 mph 0.00 in Snow Light Snow
3:03 AM 32.0 °F 16.2 °F 30.0 °F 92% 29.91 in 7.0 mi West 38.0 mph 43.7 mph 0.00 in   Overcast
3:51 AM 32.0 °F 18.6 °F 28.9 °F 88% 29.83 in 9.0 mi WSW 25.3 mph 32.2 mph 0.00 in   Overcast
4:05 AM 32.0 °F 18.6 °F 28.9 °F 88% 29.89 in 9.0 mi WSW 25.3 mph - N/A   Overcast
4:34 AM 30.9 °F 16.2 °F 28.0 °F 89% 29.89 in 9.0 mi WSW 29.9 mph 35.7 mph N/A   Overcast
4:51 AM 30.9 °F 15.3 °F 28.0 °F 89% 29.84 in 9.0 mi WSW 34.5 mph 41.4 mph N/A   Overcast
5:51 AM 30.0 °F 14.2 °F 28.0 °F 92% 29.86 in 8.0 mi WSW 33.4 mph 40.3 mph N/A   Overcast
6:25 AM 28.9 °F 13.0 °F 27.0 °F 92% 29.92 in 9.0 mi WSW 32.2 mph 39.1 mph N/A   Overcast
6:51 AM 28.9 °F 12.1 °F 25.0 °F 85% 29.89 in 8.0 mi WSW 36.8 mph 46.0 mph N/A   Overcast
7:42 AM 28.0 °F 12.3 °F 24.1 °F 85% 29.94 in 7.0 mi WSW 29.9 mph 38.0 mph N/A   Overcast
7:51 AM 28.0 °F 12.3 °F 24.1 °F 85% 29.94 in 7.0 mi WSW 29.9 mph 38.0 mph N/A   Overcast
8:13 AM 28.9 °F 13.7 °F 24.1 °F 82% 29.99 in 7.0 mi WSW 28.8 mph 38.0 mph N/A   Overcast
8:51 AM 30.9 °F 17.2 °F 25.0 °F 79% 30.01 in 8.0 mi West 25.3 mph 34.5 mph N/A   Overcast
9:35 AM 35.1 °F 21.8 °F 26.1 °F 70% 30.03 in 8.0 mi West 29.9 mph - N/A   Mostly Cloudy
9:51 AM 37.0 °F 24.7 °F 25.0 °F 62% 29.99 in 8.0 mi West 28.8 mph 38.0 mph N/A   Mostly Cloudy
9:59 AM 37.0 °F 24.7 °F 25.0 °F 62% 30.04 in 8.0 mi West 28.8 mph 36.8 mph N/A   Scattered Clouds
10:10 AM 37.9 °F 27.6 °F 25.0 °F 60% 30.05 in 8.0 mi West 20.7 mph 33.4 mph N/A   Mostly Cloudy
10:23 AM 39.0 °F 28.5 °F 25.0 °F 57% 30.05 in 8.0 mi West 23.0 mph 33.4 mph N/A   Scattered Clouds
10:51 AM 39.0 °F 28.8 °F 23.0 °F 53% 30.02 in 9.0 mi West 21.9 mph 28.8 mph N/A   Scattered Clouds
11:13 AM 37.9 °F 28.5 °F 23.0 °F 55% 30.07 in 8.0 mi WNW 17.3 mph 24.2 mph N/A   Mostly Cloudy
11:22 AM 44.1 °F 35.0 °F 23.0 °F 43% 30.06 in 9.0 mi WSW 24.2 mph 32.2 mph N/A   Mostly Cloudy
11:51 AM 44.1 °F 37.4 °F 19.0 °F 37% 30.01 in 9.0 mi WSW 13.8 mph 28.8 mph N/A   Scattered Clouds
12:51 PM 48.0 °F - 10.0 °F 22% 29.98 in 8.0 mi West 19.6 mph 32.2 mph N/A   Clear
1:51 PM 48.9 °F - 9.0 °F 20% 29.96 in 8.0 mi WSW 31.1 mph 38.0 mph N/A   Clear
2:51 PM 48.9 °F - 9.0 °F 20% 29.99 in 9.0 mi West 19.6 mph 31.1 mph N/A   Clear
3:51 PM 48.9 °F - 6.1 °F 18% 30.00 in 9.0 mi West 17.3 mph 25.3 mph N/A   Clear
4:51 PM 46.0 °F 39.9 °F 3.9 °F 18% 30.02 in 9.0 mi West 13.8 mph - N/A   Clear
5:51 PM 41.0 °F 31.9 °F 3.0 °F 21% 30.06 in 9.0 mi West 19.6 mph - N/A   Clear
6:51 PM 37.9 °F 28.5 °F 3.9 °F 24% 30.10 in 10.0 mi West 17.3 mph - N/A   Clear
7:51 PM 36.0 °F 27.5 °F 6.1 °F 29% 30.13 in 10.0 mi West 12.7 mph - N/A   Clear
8:51 PM 35.1 °F 30.1 °F 5.0 °F 28% 30.14 in 10.0 mi West 5.8 mph - N/A   Clear
9:51 PM 35.1 °F 27.4 °F 6.1 °F 30% 30.12 in 10.0 mi NE 10.4 mph - N/A   Clear
10:51 PM 34.0 °F 26.6 °F 6.1 °F 31% 30.11 in 10.0 mi ENE 9.2 mph - N/A   Clear
11:51 PM 33.1 °F 24.4 °F 10.0 °F 38% 30.10 in 10.0 mi NE 11.5 mph - N/A   Clear